Weather History for Goshen, IN

Change the Weather History Date:

Thursday, February 7, 2013

  Actual Average Record
Temperature  
Mean Temperature 34 °F -  
Max Temperature 41 °F 29 °F 54 °F (2009)
Min Temperature 27 °F 13 °F -11 °F (2014)
Degree Days  
Heating Degree Days 31    
Moisture  
Dew Point 26 °F    
Average Humidity 75    
Maximum Humidity 89    
Minimum Humidity 57    
Precipitation  
Precipitation 0.09 in - - ()
Sea Level Pressure  
Sea Level Pressure 29.99 in    
Wind  
Wind Speed 8 mph (ESE)    
Max Wind Speed 13 mph    
Max Gust Speed -    
Visibility 4 miles    
Events Rain    
Averages and records for this station are not official NWS values.
T = Trace of Precipitation, MM = Missing Value Source: NWS Daily Summary

Daily Weather History Graph

Daily Weather History Graph

Search for Another Location

Airport:

Trip Planner

Search our weather history database for the weather conditions in past years. The results will help you decide how hot, cold, wet, or windy it might be!

Date:

Astronomy

Feb. 07, 2013 Rise Set
Actual Time 7:48 AM EST 6:07 PM EST
Civil Twilight 7:19 AM EST 6:36 PM EST
Nautical Twilight 6:46 AM EST 7:08 PM EST
Astronomical Twilight 6:14 AM EST 7:41 PM EST
Moon 5:28 AM EST (2/7) 3:29 PM EST (2/7)
Length of Visible Light 11h 16m
Length of Day
10h 19m
Waning Crescent, 9% of the Moon is Illuminated
Feb 7
Waning Crescent
Feb 10
New
Feb 17
First Quarter
Feb 25
Full
Mar 4
Last Quarter

Hourly Weather History & Observations

Time (EST) Temp. Windchill Dew Point Humidity Pressure Visibility Wind Dir Wind Speed Gust Speed Precip Events Conditions
12:53 AM 28.0 °F 20.8 °F 19.9 °F 72% 30.22 in 7.0 mi SE 6.9 mph - N/A   Overcast
1:53 AM 28.0 °F 20.0 °F 21.0 °F 75% 30.18 in 7.0 mi SE 8.1 mph - N/A   Scattered Clouds
2:53 AM 27.0 °F 19.5 °F 19.9 °F 75% 30.18 in 6.0 mi ESE 6.9 mph - N/A   Haze
3:53 AM 28.0 °F 18.1 °F 21.0 °F 75% 30.17 in 6.0 mi SE 11.5 mph - N/A   Haze
4:53 AM 27.0 °F 20.5 °F 21.0 °F 78% 30.18 in 5.0 mi ESE 5.8 mph - N/A   Haze
5:53 AM 27.0 °F 18.7 °F 21.0 °F 78% 30.17 in 5.0 mi SE 8.1 mph - N/A   Haze
6:53 AM 28.0 °F 20.0 °F 21.0 °F 75% 30.17 in 5.0 mi ESE 8.1 mph - N/A   Haze
7:53 AM 28.0 °F 20.0 °F 21.0 °F 75% 30.16 in 5.0 mi SE 8.1 mph - N/A   Haze
8:53 AM 28.0 °F 20.8 °F 21.9 °F 78% 30.15 in 4.0 mi ESE 6.9 mph - N/A   Haze
9:53 AM 30.0 °F 20.0 °F 23.0 °F 75% 30.13 in 4.0 mi SE 12.7 mph - N/A   Haze
10:53 AM 33.1 °F 25.5 °F 23.0 °F 66% 30.11 in 5.0 mi SE 9.2 mph - N/A   Haze
11:53 AM 35.1 °F 27.9 °F 24.1 °F 64% 30.08 in 5.0 mi SE 9.2 mph - N/A   Haze
12:53 PM 37.0 °F 29.3 °F 26.1 °F 65% 30.04 in 5.0 mi ESE 11.5 mph - N/A   Haze
1:53 PM 37.9 °F 30.5 °F 26.1 °F 62% 29.99 in 5.0 mi SE 11.5 mph - N/A   Haze
2:53 PM 39.9 °F 32.9 °F 27.0 °F 60% 29.96 in 6.0 mi SE 11.5 mph - N/A   Haze
3:53 PM 41.0 °F 34.3 °F 27.0 °F 57% 29.93 in 6.0 mi SE 11.5 mph - N/A   Haze
4:53 PM 39.0 °F 34.0 °F 28.0 °F 65% 29.91 in 5.0 mi ESE 6.9 mph - N/A   Haze
5:53 PM 37.0 °F 31.0 °F 28.0 °F 70% 29.89 in 4.0 mi East 8.1 mph - N/A   Haze
6:53 PM 37.0 °F 29.8 °F 28.0 °F 70% 29.86 in 5.0 mi ESE 10.4 mph - N/A   Haze
7:53 PM 37.0 °F 31.6 °F 28.9 °F 73% 29.85 in 5.0 mi East 6.9 mph - 0.00 in Rain Light Rain
8:53 PM 35.1 °F 30.1 °F 30.0 °F 82% 29.85 in 3.0 mi NE 5.8 mph - 0.02 in Rain Light Rain
9:25 PM 33.8 °F 29.6 °F 30.2 °F 87% 29.82 in 2.5 mi Variable 4.6 mph - 0.02 in Rain Light Rain
9:53 PM 34.0 °F 29.8 °F 30.9 °F 89% 29.84 in 2.5 mi NE 4.6 mph - 0.05 in Rain Light Rain
10:11 PM 35.6 °F 29.2 °F 30.2 °F 81% 29.80 in 3.0 mi East 8.1 mph - 0.00 in Rain Light Rain
10:46 PM 35.6 °F 29.9 °F 30.2 °F 81% 29.79 in 3.0 mi ENE 6.9 mph - 0.00 in Rain Light Rain
10:53 PM 35.1 °F 31.0 °F 30.9 °F 85% 29.81 in 3.0 mi ENE 4.6 mph - 0.00 in Rain Light Rain
11:11 PM 35.6 °F 31.7 °F 30.2 °F 81% 29.79 in 2.5 mi NE 4.6 mph - 0.02 in Rain Light Rain
11:34 PM 33.8 °F 27.0 °F 30.2 °F 87% 29.78 in 2.0 mi ENE 8.1 mph - 0.02 in Rain Light Rain
11:53 PM 34.0 °F 31.0 °F 30.9 °F 89% 29.81 in 2.5 mi North 3.5 mph - 0.02 in Rain Light Rain